Theta_e
330 332 333 335 335 336 336 336 337 337 338 339 340 341 342 343 344 345 345 346 346 346 347 349 349 349 349 349 349 350 350 349 349 348 347 347 348 347 346 346 345 344 346 347 349 350 351 352 353 353 354 355 356 356 356 357 357 358 357 357 356 355 354
328 331 333 335 335 336 337 337 337 337 338 339 340 340 342 342 344 344 345 346 346 346 347 348 349 349 349 349 349 349 349 349 349 350 349 348 349 348 347 347 346 344 344 347 349 350 351 352 353 353 353 355 356 356 357 357 357 357 357 356 355 354 354
328 330 333 334 335 336 337 337 337 338 338 339 340 340 341 342 343 344 345 345 345 346 347 348 349 349 350 349 349 349 349 349 348 348 348 347 347 348 348 347 347 346 345 346 348 349 352 351 352 353 353 353 355 356 356 356 357 357 356 356 355 355 353
328 330 332 335 336 337 338 338 338 338 339 339 340 340 341 342 344 345 345 345 345 346 345 347 348 349 349 349 348 348 348 348 348 348 348 348 347 348 347 347 347 347 346 345 348 350 352 352 352 352 356 353 354 355 356 356 357 357 356 355 355 355 354
328 330 332 334 335 336 337 338 338 338 338 339 340 342 341 343 344 344 345 345 346 345 346 347 348 349 349 350 349 349 348 348 348 348 349 349 349 348 347 347 347 347 347 348 348 350 351 351 351 352 352 353 353 354 355 356 356 356 356 356 354 354 354
327 329 331 333 335 336 337 338 339 339 339 339 339 340 341 342 343 343 344 345 345 346 346 347 347 348 348 349 349 349 349 348 349 349 348 349 349 348 347 348 347 347 347 348 350 350 351 351 351 352 351 352 352 353 354 355 356 356 356 356 355 355 354
327 329 331 332 334 336 337 338 339 339 340 340 341 341 342 342 342 343 344 344 345 345 345 345 346 347 347 348 348 348 347 347 348 348 349 348 349 348 348 348 349 348 348 348 349 351 350 351 351 352 352 352 352 352 353 353 354 355 355 355 354 355 354
327 328 331 333 334 336 337 338 339 339 340 341 341 341 341 342 342 343 343 343 344 345 345 345 345 346 347 348 348 347 347 347 348 348 348 348 348 348 348 348 349 349 349 347 348 351 351 351 352 352 352 352 351 352 352 353 353 354 355 354 354 354 355
327 329 331 333 334 336 337 338 339 339 339 340 340 341 341 342 342 342 343 343 344 344 345 346 346 347 347 347 347 347 347 347 348 348 348 348 348 348 348 349 349 350 349 349 348 350 352 352 352 352 352 352 352 351 352 352 352 353 354 354 353 353 354
326 328 330 333 335 336 337 338 339 339 338 339 340 340 341 342 342 343 343 344 344 344 345 346 346 346 347 347 347 347 347 347 348 348 348 348 348 348 349 349 349 351 350 350 350 349 351 352 353 353 352 352 351 351 352 352 353 353 353 353 353 353 353
327 328 330 332 333 335 336 337 337 338 338 339 340 341 342 342 343 343 343 344 344 345 346 346 347 346 346 347 347 347 347 347 347 347 347 348 348 349 349 350 350 350 350 351 351 351 350 351 352 352 352 352 352 351 351 352 352 352 353 353 354 353 353
327 329 330 332 333 334 335 336 338 338 338 339 340 341 342 342 343 344 344 345 346 345 346 346 347 347 347 347 347 347 347 347 347 347 348 348 349 349 350 350 350 350 351 351 351 351 352 351 351 352 352 352 353 352 352 352 352 352 352 353 353 353 353
328 329 330 332 334 335 336 336 337 337 338 339 340 341 342 343 343 344 345 345 346 347 347 347 347 347 347 347 347 347 347 348 348 348 348 349 349 350 350 350 351 351 350 351 350 351 351 352 351 352 352 352 352 352 352 352 352 352 352 352 352 352 352
334 329 331 332 334 334 335 336 337 337 338 339 339 341 342 343 344 345 345 345 347 347 348 348 348 347 347 347 347 347 347 348 349 349 350 350 350 350 350 351 351 351 351 351 350 349 350 351 352 353 353 353 353 353 353 352 352 352 352 352 352 352 352
327 328 329 331 332 334 335 335 336 337 338 339 339 340 342 343 344 345 346 347 347 348 348 349 348 347 347 347 347 347 348 349 349 350 350 351 350 350 350 351 351 351 351 351 350 350 350 350 351 352 353 353 353 353 354 353 352 352 352 352 352 352 352
326 327 329 330 332 334 335 336 337 337 338 338 339 340 341 343 344 345 345 346 347 348 349 349 348 348 348 347 348 349 349 349 350 350 350 350 350 350 350 350 351 351 350 350 350 350 350 349 349 349 350 351 352 352 353 353 354 346 335 338 352 352 353
326 327 328 330 331 333 335 336 337 338 338 338 339 339 341 343 344 345 346 347 348 348 350 350 349 348 348 348 349 349 350 350 349 350 349 350 350 350 350 350 350 350 350 350 350 350 349 350 348 348 348 348 349 350 352 352 352 337 331 331 334 349 353
325 326 328 329 331 332 333 334 336 337 338 338 339 340 341 342 344 345 345 347 348 349 351 350 350 349 349 349 349 350 350 350 350 350 350 350 350 350 350 350 350 349 349 349 349 349 350 349 348 348 348 348 348 348 350 351 338 332 330 330 329 333 352
325 326 328 329 330 332 332 333 335 337 339 339 340 340 341 343 343 344 345 347 348 350 350 350 350 350 350 350 350 350 350 350 350 350 350 350 350 350 350 350 350 349 349 349 350 350 349 348 348 348 348 348 347 347 349 350 337 331 328 328 328 328 335
325 326 327 329 330 331 332 333 335 337 339 340 341 342 343 344 344 345 347 348 349 349 349 350 351 351 351 351 351 351 351 351 350 350 350 351 351 351 350 350 349 350 350 350 350 349 348 348 348 348 348 348 347 347 348 349 337 330 326 326 326 326 329
326 325 325 326 328 329 330 331 333 334 335 338 340 340 341 343 345 346 347 348 348 349 349 350 350 351 351 351 352 352 352 351 351 351 351 351 351 351 350 350 350 350 350 350 349 348 348 348 348 348 349 348 349 348 348 349 335 328 325 323 322 324 326
334 335 334 333 333 333 333 333 334 335 336 341 342 341 341 342 344 345 346 349 349 349 349 350 351 351 351 352 352 353 353 353 352 351 351 351 351 351 350 351 350 350 351 350 350 350 349 349 349 348 348 349 349 348 347 349 333 327 324 322 321 323 334
343 342 343 342 341 340 339 339 340 343 346 343 343 342 341 342 344 344 345 346 348 348 349 350 350 351 352 353 353 354 354 354 353 352 352 352 351 350 351 350 351 351 352 350 350 349 348 348 348 348 348 348 348 348 348 349 338 326 322 321 320 322 337
342 343 344 345 346 347 347 348 349 351 350 351 352 353 352 345 345 344 344 345 347 348 348 348 349 351 353 353 354 355 355 355 354 353 353 352 351 351 351 352 352 352 352 350 349 349 349 349 348 348 349 348 348 348 348 348 341 325 320 319 319 325 340
341 342 344 345 345 345 345 345 346 348 349 349 349 350 354 353 346 346 345 347 346 347 347 348 349 350 351 354 356 356 356 356 356 355 354 353 353 353 352 352 352 353 353 352 351 350 350 350 349 348 349 349 348 344 346 349 342 324 321 318 317 325 341
339 341 342 344 345 345 345 347 347 346 346 346 347 350 353 356 357 357 353 352 348 346 347 348 350 351 351 353 355 357 357 357 357 356 355 354 354 354 354 354 353 352 352 352 352 351 350 350 349 348 348 349 349 350 349 349 350 342 319 317 316 318 341
338 340 342 343 343 348 344 345 345 344 345 346 348 350 353 356 356 355 356 352 352 352 353 351 349 348 350 351 352 354 356 357 357 357 357 357 356 356 355 355 353 353 352 351 352 351 350 350 349 349 348 349 349 350 350 351 351 348 319 315 315 315 322
337 339 341 345 348 346 342 342 342 342 343 344 347 349 351 352 353 351 349 349 350 352 358 358 357 355 349 349 350 352 354 355 357 358 358 358 357 355 354 355 354 353 352 352 351 350 349 349 348 348 348 348 349 349 349 351 343 353 322 316 314 314 313
333 335 336 339 340 344 342 340 340 340 340 342 344 346 347 349 349 349 347 346 347 350 352 354 354 354 351 348 348 350 352 353 355 356 358 357 357 356 354 355 354 353 352 351 350 349 349 349 348 348 347 347 347 348 349 350 349 333 340 317 313 313 312
333 334 336 339 340 341 342 339 339 338 339 340 342 343 344 344 346 348 345 341 345 347 351 350 351 351 348 347 347 349 351 352 354 355 356 357 357 356 355 354 354 353 353 352 350 349 348 348 348 347 347 346 346 347 348 349 350 337 328 331 314 313 312
331 332 334 335 338 341 340 338 336 337 337 338 339 340 341 341 342 343 341 341 345 348 347 348 351 350 351 345 346 348 350 352 353 353 355 356 356 355 354 353 353 352 352 351 350 350 348 348 348 348 348 347 347 347 348 350 351 351 336 324 319 313 312
328 331 333 335 337 338 336 337 337 336 336 336 338 339 341 340 341 341 338 342 346 345 345 348 349 351 351 348 344 347 350 351 352 353 354 355 356 356 355 354 353 353 352 352 351 351 349 349 348 348 348 348 348 348 349 350 351 352 340 334 328 320 312
325 328 330 331 336 338 333 335 335 335 336 335 336 338 340 340 341 342 342 345 345 345 346 349 352 352 350 349 344 345 349 351 352 353 354 354 355 355 356 355 354 353 352 353 352 351 350 350 349 348 348 348 349 350 350 350 350 345 336 333 335 335 330
324 326 329 332 334 338 334 333 333 334 334 334 334 336 338 339 339 340 342 343 344 344 345 350 352 350 346 347 346 348 350 351 361 357 354 353 355 354 354 355 356 354 353 353 353 352 351 352 351 349 350 350 350 351 350 349 342 339 340 334 332 330 328
324 324 327 330 332 337 335 331 334 333 334 333 333 335 336 336 338 340 341 342 343 343 345 349 354 349 345 346 349 349 351 353 358 355 344 329 321 313 310 313 321 345 344 329 325 343 356 355 353 353 353 354 353 352 349 342 342 340 318 323 319 329 329
324 324 326 329 332 333 335 336 333 333 333 333 334 335 336 336 337 339 340 342 344 344 345 346 347 345 345 346 344 349 351 355 354 347 341 335 327 323 319 313 303 306 325 325 320 311 308 327 353 356 353 339 320 324 345 350 341 304 300 298 298 298 299
323 323 326 329 330 332 335 335 337 335 334 333 335 335 335 336 336 337 339 340 343 344 343 343 343 343 344 345 345 343 352 354 352 344 339 334 330 329 327 325 318 302 300 306 307 301 298 298 304 318 330 341 328 313 303 305 300 297 296 296 296 297 297
324 324 326 328 329 330 334 333 333 332 331 331 333 333 333 335 336 336 338 340 342 344 344 343 342 341 341 343 345 347 349 352 350 343 338 335 333 332 330 328 325 322 306 300 302 301 298 298 299 300 304 310 315 316 313 302 297 296 296 296 297 297 296
Wind_Speed
21 19 18 17 17 17 19 19 20 19 19 19 19 19 18 17 17 16 16 18 19 18 18 17 17 16 17 16 16 14 13 12 11 11 10 10 9 9 9 8 9 8 7 8 8 9 9 7 8 9 8 7 7 7 6 6 6 6 6 5 5 5 6
17 18 18 17 17 17 18 18 18 17 17 18 18 19 18 19 17 17 18 19 21 21 19 18 18 16 17 16 14 15 14 14 13 11 10 8 8 8 9 9 9 9 8 8 7 7 6 8 9 9 8 7 8 7 7 7 7 7 6 6 6 6 6
17 18 18 18 18 17 19 17 17 17 18 17 18 18 20 20 20 21 19 19 20 20 18 19 19 18 17 16 15 15 15 13 12 13 12 12 12 11 9 9 9 8 9 7 6 7 7 8 8 8 8 8 8 7 7 7 7 7 7 6 7 7 6
18 19 19 20 21 21 21 20 21 19 18 20 21 22 21 21 20 19 19 19 20 19 19 18 18 17 16 16 15 14 14 13 13 13 13 11 11 10 8 8 8 7 7 8 8 8 7 8 9 8 8 8 8 8 7 8 7 7 7 7 7 7 7
20 20 18 18 19 18 16 16 17 18 19 20 20 20 20 19 19 17 17 18 19 20 20 19 16 15 14 14 12 11 13 13 12 11 11 10 10 9 9 10 9 9 10 8 7 7 7 8 8 8 8 8 8 8 8 8 8 8 7 7 7 7 7
20 19 18 18 18 17 18 19 20 20 20 20 20 19 18 18 16 18 18 17 17 16 16 16 17 16 15 14 13 12 12 12 12 11 11 11 10 10 11 11 11 10 9 10 8 8 8 8 9 9 9 9 9 9 8 8 9 8 8 7 8 7 7
19 20 20 19 19 18 19 20 19 19 18 18 17 15 14 15 18 18 16 16 17 18 17 17 16 15 14 14 14 14 14 14 13 13 12 11 11 11 11 10 9 9 9 5 7 8 8 9 10 10 10 10 9 10 9 9 9 8 7 8 8 8 8
20 19 20 21 20 20 20 20 19 18 16 13 13 14 17 17 16 16 17 17 17 17 16 17 17 16 15 13 13 15 14 14 13 13 12 13 12 12 12 10 10 9 6 8 8 8 10 11 10 9 10 10 10 10 10 9 10 8 8 9 9 9 7
20 22 22 21 21 20 18 18 19 19 19 18 19 19 18 17 17 17 18 17 16 17 18 18 18 16 15 14 14 15 14 14 13 13 14 14 13 13 12 11 10 8 9 9 8 8 9 10 10 10 9 10 10 10 10 10 10 9 9 9 10 10 9
20 19 19 20 19 17 17 16 15 13 15 16 15 15 17 17 17 17 16 17 16 19 20 18 16 16 15 14 15 15 15 14 13 14 14 14 13 14 13 12 11 9 10 10 8 9 9 9 9 9 9 10 11 10 11 11 10 10 10 11 10 10 10
18 19 19 18 17 17 15 15 15 15 17 17 16 16 16 17 17 17 17 16 17 18 18 17 15 15 15 15 16 15 15 15 14 14 14 14 12 14 14 13 11 10 12 11 10 10 9 8 8 9 9 11 12 12 11 12 11 11 11 10 10 10 10
16 17 17 18 17 15 16 18 18 17 17 16 16 16 16 16 16 16 16 17 17 16 16 16 14 15 15 15 15 15 16 15 14 15 15 15 14 15 14 13 12 12 11 11 12 11 10 10 9 9 11 12 12 12 12 11 11 11 11 11 10 9 10
15 16 16 18 17 17 17 16 18 18 18 17 17 16 15 16 16 16 16 17 16 15 15 16 15 15 15 15 15 14 15 15 15 14 14 14 14 13 12 13 13 13 13 12 12 12 11 11 11 11 11 12 12 12 12 11 11 11 11 11 10 10 11
16 15 14 14 15 16 18 19 18 17 17 17 16 16 15 15 16 16 16 17 16 15 15 13 15 15 15 15 15 15 16 15 14 14 14 13 13 13 13 13 12 13 12 11 12 12 12 12 12 12 11 12 12 12 11 10 10 11 11 10 11 11 11
15 15 14 14 16 17 18 18 16 17 17 17 16 16 16 14 14 13 12 13 14 14 16 15 15 16 16 15 15 15 15 14 13 13 13 13 13 13 13 13 12 12 11 11 11 11 12 12 12 12 12 12 12 12 11 10 11 10 10 11 12 11 12
16 16 16 18 18 18 18 19 18 18 18 16 17 16 15 14 15 15 16 16 17 17 16 15 16 16 15 15 15 14 14 14 13 12 13 13 14 14 13 12 12 12 12 12 12 12 11 11 12 12 13 13 12 11 10 11 10 13 17 15 12 11 11
16 16 17 18 17 18 18 18 18 16 16 17 17 17 17 16 16 15 15 15 16 16 15 15 15 15 15 15 15 14 13 12 12 12 13 14 13 12 13 13 12 12 12 12 12 13 12 12 13 13 13 14 13 13 11 11 11 17 16 17 19 13 11
16 16 17 18 18 17 16 15 14 16 17 17 17 17 16 15 14 14 16 15 16 15 13 14 14 14 14 14 13 13 13 13 13 13 13 13 13 13 13 12 13 13 13 13 13 13 12 12 13 13 13 12 13 13 13 12 15 17 17 17 18 17 13
15 16 17 16 15 14 15 16 17 18 19 17 17 17 18 17 15 16 16 15 13 12 13 14 14 14 14 14 14 14 13 13 13 14 13 14 14 13 13 13 14 14 14 14 14 11 12 14 13 14 13 13 14 14 13 12 15 17 17 17 18 19 16
11 14 14 13 15 17 16 14 13 14 15 16 16 17 16 15 17 15 13 12 11 13 13 13 13 14 15 15 14 14 14 14 14 14 14 14 13 13 13 14 15 15 14 13 12 13 14 13 14 14 13 14 14 13 12 13 15 17 17 17 18 17 15
5 6 8 9 8 7 7 9 9 8 9 9 10 7 7 8 7 6 8 10 12 12 12 12 13 14 14 14 14 14 13 14 14 14 14 14 14 14 14 15 14 14 13 13 14 14 14 14 14 14 14 14 13 12 13 13 17 16 17 17 18 16 13
6 9 9 8 11 9 10 10 11 11 9 6 7 7 9 9 9 10 11 10 11 11 12 13 13 14 13 13 13 14 14 14 14 15 14 14 14 14 15 14 15 15 13 13 13 12 12 12 13 14 14 14 13 13 14 13 17 17 17 17 17 16 10
9 11 12 10 12 10 9 10 11 10 8 8 7 8 8 8 9 10 9 10 10 10 11 12 13 13 13 14 14 14 15 15 15 15 15 15 14 15 15 15 14 14 12 13 13 13 13 14 13 13 13 14 14 15 14 13 15 17 17 17 17 13 9
11 12 13 14 14 14 13 12 12 11 12 11 8 4 5 9 10 10 9 9 9 10 10 11 12 13 13 14 14 15 15 15 15 15 15 14 15 15 15 15 14 14 12 14 14 14 14 13 12 12 13 14 15 14 13 13 14 16 16 17 18 16 12
12 12 11 12 15 15 14 12 13 12 12 12 10 4 4 6 10 10 9 9 9 10 10 11 12 12 13 14 14 15 15 15 15 15 15 15 15 15 15 15 15 14 13 13 13 13 12 11 11 12 12 13 14 15 15 13 12 16 17 18 18 16 10
12 12 11 11 11 12 12 11 14 15 14 12 7 4 6 8 8 6 6 5 7 9 11 12 12 12 12 12 13 13 13 13 14 14 14 15 15 14 14 14 12 12 12 12 11 11 11 11 11 13 12 11 12 12 13 13 11 12 18 18 19 20 13
11 10 11 10 9 8 12 13 14 13 12 8 7 7 6 8 10 8 6 6 6 3 0 1 2 4 6 8 10 11 12 12 13 15 14 14 15 15 14 12 12 12 12 12 11 11 10 11 11 11 12 11 11 11 11 11 11 11 17 18 20 20 18
13 13 11 9 9 8 10 12 13 12 11 8 9 8 7 9 10 8 6 7 6 1 0 1 2 2 4 7 9 10 11 12 12 13 13 13 12 11 12 11 12 11 12 10 10 11 12 10 10 10 10 9 9 9 10 10 14 10 14 19 20 20 22
12 11 10 9 10 9 9 10 12 11 9 8 8 8 7 10 10 7 6 7 3 2 1 0 1 2 4 6 8 10 12 12 14 13 10 11 12 13 13 11 11 11 10 10 10 11 11 11 10 9 9 8 7 7 8 8 9 15 12 17 20 21 21
12 11 11 10 8 7 8 10 9 10 9 8 8 7 7 8 7 6 6 4 3 2 1 2 1 0 2 5 6 8 9 11 13 13 12 13 12 12 12 10 10 10 9 10 10 9 10 9 8 8 8 9 8 7 6 7 7 11 16 14 19 20 22
10 10 10 9 8 7 7 9 9 9 9 8 7 6 6 5 7 7 6 4 3 3 3 3 3 3 3 1 5 6 7 8 9 11 11 11 12 11 10 10 8 9 8 8 8 9 9 8 8 9 9 8 8 7 6 6 7 7 11 16 16 19 19
12 11 12 11 10 8 6 7 9 9 10 9 7 6 5 5 6 7 2 2 3 3 3 2 3 4 4 3 2 4 5 7 8 9 10 10 9 11 10 11 10 10 8 9 9 9 9 8 8 8 7 8 7 6 7 6 6 6 3 4 8 9 13
11 10 9 11 10 6 6 7 9 10 10 10 7 6 6 6 6 4 3 4 3 3 3 2 2 3 4 5 2 3 4 6 7 7 7 7 7 7 7 7 8 8 8 8 8 7 7 7 7 7 7 7 6 6 6 7 6 5 3 3 5 6 6
12 12 11 9 9 8 5 6 8 8 8 7 5 5 6 6 6 5 4 4 4 3 3 3 2 2 3 3 1 3 4 5 7 7 5 4 4 5 5 5 6 7 7 8 8 8 7 7 7 7 8 7 7 7 6 6 4 4 6 5 5 4 3
10 9 8 10 9 7 5 3 5 6 7 5 3 5 5 5 5 5 5 4 3 3 4 3 3 3 3 3 0 2 2 4 4 6 7 8 10 9 7 4 2 1 4 4 2 3 6 7 6 7 7 7 7 8 6 3 6 6 3 4 3 5 6
9 9 9 7 5 5 4 3 4 6 6 4 5 6 7 7 7 6 6 5 5 5 6 4 4 4 5 4 3 1 3 5 6 7 7 8 7 9 9 12 12 8 3 2 4 3 3 2 5 5 5 5 3 1 4 5 3 10 12 10 10 10 10
10 10 10 9 9 9 7 6 5 7 8 7 7 8 7 7 7 7 7 6 5 6 6 5 5 5 5 5 4 2 3 5 7 7 7 7 7 7 9 7 11 16 15 10 7 8 10 11 9 7 5 8 6 6 10 12 14 13 12 12 11 11 11
8 7 7 8 8 8 7 6 5 5 4 4 6 6 6 7 7 6 6 5 5 5 6 6 6 5 5 5 5 4 4 6 7 7 7 6 6 7 8 8 9 10 13 14 14 15 14 13 12 12 14 13 12 10 7 9 11 14 13 13 13 12 12
Wind_Direction
191 193 195 194 194 195 195 194 190 189 188 188 188 187 186 186 186 184 186 186 189 189 190 189 190 190 192 195 195 195 196 193 191 194 196 200 200 198 198 201 201 200 195 195 199 199 201 188 197 204 204 206 204 201 198 198 203 211 209 207 205 205 210
195 195 194 193 195 197 198 195 191 190 188 188 187 186 186 187 186 187 189 188 188 188 187 189 190 192 193 195 194 195 194 193 191 193 195 199 201 203 200 201 201 201 197 201 197 199 182 196 196 201 205 207 209 202 200 199 202 205 206 207 207 213 209
198 197 194 192 195 195 195 193 192 192 189 187 186 186 189 188 187 188 188 189 191 191 187 189 190 191 193 194 194 197 196 193 192 192 193 197 199 201 201 200 203 202 201 192 187 192 192 194 200 202 202 206 211 208 205 204 205 205 209 205 210 213 213
198 197 196 195 195 195 193 190 191 191 190 188 188 189 189 189 188 189 188 189 190 190 189 191 190 192 192 193 195 196 196 196 195 194 197 197 198 198 197 203 204 204 197 197 193 190 193 193 198 202 203 206 211 212 208 210 209 207 210 206 213 217 218
199 199 195 196 198 196 191 192 192 192 192 191 190 189 189 188 186 188 191 192 191 191 191 188 190 192 193 191 194 196 197 196 196 197 198 198 196 190 198 204 204 204 207 201 192 188 189 192 199 201 204 205 211 211 213 212 214 209 210 207 216 217 222
196 197 195 198 196 194 192 194 193 191 190 189 189 188 187 185 185 189 191 190 192 193 190 188 190 189 191 192 193 195 194 197 198 197 198 197 193 194 199 204 205 207 205 203 191 196 192 193 197 201 204 206 207 211 213 212 216 210 211 208 217 217 218
194 194 196 194 196 194 194 194 192 192 192 191 188 184 181 183 187 188 187 190 190 188 188 190 192 190 193 190 195 193 193 195 195 198 197 197 197 200 203 204 206 208 209 185 197 193 196 199 200 201 205 205 206 208 211 213 213 210 209 211 218 220 219
193 194 196 196 193 195 195 191 190 190 189 183 178 180 184 187 187 186 188 190 188 188 189 189 190 191 192 192 194 194 195 196 196 197 196 198 199 203 203 202 202 203 192 196 200 189 200 204 204 204 204 207 209 209 212 215 214 208 205 212 218 223 217
195 193 195 195 196 195 191 188 187 186 182 181 184 185 185 183 186 187 188 188 187 187 191 190 191 191 189 190 191 195 195 194 196 196 198 199 201 205 205 204 204 195 197 204 201 198 202 206 207 206 204 209 211 210 212 214 216 212 208 213 215 219 220
196 195 200 197 194 188 186 184 184 181 182 184 185 184 184 185 186 186 187 187 186 191 191 191 191 189 188 190 194 194 193 194 195 196 198 201 203 205 207 205 204 197 204 207 204 204 208 207 208 207 207 212 215 212 213 213 214 214 214 215 214 218 220
194 195 196 194 189 185 181 174 176 183 186 187 186 185 185 185 186 185 186 186 188 193 191 190 188 187 188 190 193 193 195 197 195 196 199 202 204 208 207 207 204 201 206 205 208 210 207 209 206 208 209 214 216 215 214 214 212 214 217 217 217 218 220
189 191 192 187 182 176 175 178 182 184 185 187 186 185 186 186 185 186 186 189 189 189 186 188 186 188 188 191 192 193 196 198 197 198 198 201 205 208 208 207 206 205 207 204 208 209 209 209 207 209 213 216 218 217 218 215 213 214 216 217 217 220 222
185 189 187 181 178 180 177 178 182 185 185 185 185 185 185 185 186 186 186 187 188 187 186 185 185 187 188 190 193 194 198 197 198 197 198 200 205 207 207 208 208 208 209 204 207 206 209 209 210 214 216 220 219 220 219 217 216 218 218 217 216 219 222
185 185 180 177 177 173 177 182 183 183 183 184 185 186 185 186 187 187 186 186 186 185 185 185 186 187 189 190 194 196 198 199 197 198 199 200 202 205 208 209 210 212 212 206 207 208 209 210 211 216 217 221 222 224 222 219 218 220 220 217 216 217 221
180 179 172 172 177 177 181 181 181 182 182 184 182 182 184 184 186 186 185 184 185 186 189 185 185 188 190 191 194 197 197 197 197 198 199 199 200 204 207 208 211 213 213 211 212 211 212 213 215 216 220 224 224 226 223 223 222 220 218 217 218 218 222
180 175 173 178 179 180 181 182 181 181 181 179 180 183 182 184 186 187 186 185 185 188 187 182 188 189 191 193 195 196 196 196 196 196 198 199 201 203 204 207 209 211 213 213 214 214 213 215 217 219 222 225 225 225 224 225 227 223 217 214 215 217 222
179 177 178 181 179 180 182 183 182 178 177 180 182 182 183 185 188 188 188 187 187 189 185 183 187 189 190 193 195 196 194 193 197 196 199 202 202 201 201 204 206 210 213 214 214 215 214 214 218 220 223 226 227 226 225 227 228 225 217 216 216 215 219
179 178 179 182 182 181 179 176 172 176 180 183 184 184 185 185 186 186 191 188 189 185 180 183 186 188 189 194 195 193 192 194 195 197 201 200 203 201 200 201 204 208 211 212 214 215 214 216 218 222 224 227 229 231 230 230 230 225 221 216 215 214 219
180 180 182 181 176 173 174 176 178 181 184 183 184 185 189 185 182 190 190 188 184 175 182 184 184 184 188 194 195 194 192 193 194 198 200 201 202 202 200 201 204 208 209 212 213 213 215 218 218 222 223 225 228 232 232 235 231 225 222 219 216 215 217
187 182 178 175 175 176 176 175 178 182 182 182 184 188 186 182 189 191 186 179 174 183 183 180 183 185 192 196 195 193 191 193 195 198 201 199 200 201 201 202 207 207 208 210 209 213 217 217 220 222 223 224 227 231 234 233 234 223 222 221 219 216 210
100 120 129 130 130 135 146 155 151 149 159 175 180 172 167 186 185 162 172 178 182 183 181 182 184 188 194 195 195 193 193 193 196 199 200 200 200 201 203 205 208 207 207 207 209 212 214 215 219 222 223 225 225 229 233 234 230 223 219 219 217 214 205
94 101 108 121 124 127 131 138 145 150 153 140 141 159 177 179 171 173 185 182 181 181 183 184 187 191 193 195 195 195 194 193 196 200 200 199 200 201 205 206 207 208 206 208 213 215 215 217 219 222 222 223 223 226 233 234 226 220 217 214 214 206 205
70 91 98 100 105 107 110 114 116 121 117 124 138 150 169 164 175 183 182 185 186 180 184 185 189 193 192 196 196 196 196 195 196 200 200 199 199 202 205 207 209 210 205 208 212 213 213 216 216 220 221 222 221 224 230 233 226 217 213 210 205 195 209
55 69 85 95 92 93 94 95 97 98 106 104 92 96 147 165 170 173 178 186 185 183 190 188 194 194 193 198 198 197 197 196 197 199 200 199 200 202 206 208 209 209 203 206 209 212 214 214 217 218 219 221 223 221 225 231 225 210 209 205 198 193 202
49 55 65 79 96 100 96 95 98 99 93 91 86 76 88 136 160 164 177 183 185 187 192 197 199 197 195 200 200 199 197 197 198 200 200 200 203 203 205 207 207 208 203 208 210 215 213 213 217 220 222 223 225 222 222 230 225 208 207 203 199 197 207
41 50 57 65 71 87 97 101 90 78 77 77 80 81 83 93 105 120 140 161 174 187 197 200 203 203 200 200 200 200 199 198 198 201 200 202 205 205 207 208 208 207 205 209 210 213 211 212 215 219 222 222 223 223 221 225 227 210 204 201 201 198 202
36 43 53 54 62 72 81 79 82 86 83 84 79 74 76 87 86 85 89 93 86 89 148 236 230 218 206 198 196 199 201 201 200 201 203 203 204 204 207 205 206 206 204 207 207 211 212 213 215 219 223 220 220 223 221 219 222 216 197 202 201 202 200
29 33 38 49 54 59 75 81 82 82 76 71 72 70 73 81 83 86 82 75 63 42 219 215 221 209 207 204 199 198 198 200 203 204 204 204 203 204 208 208 206 206 204 205 205 208 213 214 216 220 223 222 221 222 223 217 211 216 200 201 203 202 202
26 28 23 27 44 49 66 75 73 74 76 69 66 63 65 75 78 78 71 61 23 327 303 239 185 206 208 206 203 199 196 198 199 201 204 203 200 202 206 204 203 205 201 201 204 206 211 214 213 217 222 223 220 218 217 214 211 209 204 203 204 205 205
21 21 22 21 30 39 53 65 67 66 59 58 59 61 60 74 80 73 63 35 317 322 342 7 355 123 175 200 210 206 205 200 199 199 200 201 199 201 203 201 201 201 199 199 201 203 209 213 212 213 218 221 221 214 213 209 210 211 209 202 204 208 208
15 15 15 19 15 23 46 57 63 65 58 48 51 58 62 63 75 62 44 347 341 342 357 348 351 359 6 206 205 208 208 199 199 201 199 197 194 196 200 201 189 195 197 193 200 202 206 209 205 209 213 216 218 213 210 210 210 216 213 209 203 208 211
10 11 14 16 18 16 31 47 55 58 58 47 42 54 65 65 69 65 15 332 0 344 325 336 3 356 343 328 228 214 199 196 199 197 196 192 193 196 196 193 189 193 191 191 199 200 203 204 199 207 205 210 211 204 209 210 211 214 170 186 206 212 222
4 7 9 10 6 13 24 48 52 52 52 50 32 47 56 62 57 64 47 39 10 12 336 342 31 353 342 330 275 206 194 195 192 189 187 184 183 186 185 184 188 193 189 191 196 197 200 197 191 197 196 202 199 201 204 210 214 186 160 165 172 203 206
360 358 359 3 4 12 25 54 66 63 59 53 36 44 54 54 47 39 36 32 23 14 16 28 35 9 334 319 277 193 191 191 186 165 141 121 122 139 153 167 177 183 186 190 195 190 195 187 191 192 194 199 192 199 202 216 191 178 185 177 177 162 170
355 357 355 360 355 8 20 47 75 78 74 63 51 59 57 53 43 34 34 22 27 38 45 20 14 24 12 352 24 176 177 165 140 124 113 92 72 56 40 9 360 128 122 47 41 207 195 197 199 199 196 194 190 189 208 185 203 217 104 104 120 161 161
352 356 353 348 350 15 21 34 71 77 71 63 53 53 47 38 28 23 21 14 24 36 47 26 20 31 15 360 4 64 127 123 112 112 118 118 109 100 76 59 63 35 48 67 8 62 80 124 202 202 165 110 52 2 203 228 182 109 100 98 91 82 86
350 351 349 347 354 5 14 14 29 48 50 43 46 47 42 38 23 18 12 13 23 43 50 39 40 30 17 7 359 4 107 113 111 112 112 114 119 113 110 97 52 47 46 50 48 57 67 76 66 78 121 150 130 65 54 92 106 104 105 99 92 91 88
342 343 343 349 353 349 8 8 17 31 51 53 60 57 49 44 28 15 9 13 25 44 56 50 49 38 12 4 348 21 86 103 111 117 118 113 119 122 126 113 100 58 39 47 61 58 58 58 66 74 79 83 109 118 64 59 86 100 92 90 89 87 87